RH
55 57 52 55 54 55 63 53 42 43 49 50 47 55 57 56 60 75 82 82 80 81 90 92 92 92 93 93 93 92 88 83 79 84 84 88 88 86 90 91 93 94 95
53 49 51 54 53 55 58 54 50 44 50 47 47 47 50 54 57 58 62 67 73 76 71 67 73 82 86 90 91 93 92 87 81 78 76 75 84 91 93 92 91 91 93
51 50 54 52 50 54 58 59 54 50 45 45 41 46 49 52 55 57 58 60 60 62 72 78 69 67 71 73 73 74 74 74 75 76 82 90 93 93 93 92 93 94 93
55 55 56 56 53 58 62 61 57 53 47 41 43 45 47 50 52 52 54 56 57 57 58 64 72 76 78 80 80 81 82 84 88 91 91 90 92 94 93 92 92 88 84
57 59 57 58 58 58 59 57 56 56 53 45 42 49 50 51 53 55 55 55 56 57 58 58 58 59 62 67 66 68 71 70 71 74 77 79 78 79 75 79 77 71 78
59 59 56 60 62 61 61 59 57 56 55 52 46 45 49 52 52 55 55 57 57 54 51 50 54 56 58 59 60 62 64 64 63 65 68 70 70 69 70 72 75 74 74
63 71 72 74 70 65 62 56 61 62 55 53 46 49 50 52 54 57 56 56 57 58 57 55 50 50 50 49 51 54 57 59 61 61 62 62 63 67 69 71 70 70 72
71 79 82 82 76 69 61 57 61 56 50 48 48 50 53 55 58 59 61 59 61 59 58 57 55 55 53 55 55 57 59 60 60 63 64 66 69 70 69 69 71 72 74
78 73 78 78 77 76 61 61 57 54 51 50 52 53 52 55 57 62 66 66 66 64 65 64 60 59 61 63 63 61 61 62 62 62 65 68 70 71 68 69 70 74 75
80 75 75 78 78 70 64 60 62 62 58 55 58 59 60 62 65 66 67 69 72 72 72 69 68 65 64 66 65 64 63 63 61 57 57 55 55 62 66 58 51 52 43
76 76 75 78 83 70 62 61 63 62 62 62 64 65 70 68 73 76 75 74 74 73 73 72 70 72 71 68 67 66 62 54 48 46 44 42 44 37 25 18 23 28 32
78 78 74 70 73 76 63 60 60 60 64 68 72 73 83 89 84 80 76 76 81 79 83 85 80 76 70 68 66 62 46 42 36 31 29 24 23 20 15 14 11 10 17
72 69 67 67 68 68 73 68 65 66 68 72 72 83 82 89 83 84 83 83 82 77 79 84 76 71 62 51 44 36 25 25 24 25 24 24 22 18 18 18 17 18 20
69 66 64 64 72 74 69 64 66 69 71 74 76 83 88 83 89 90 84 83 79 76 74 71 62 56 43 33 25 25 23 24 24 25 26 25 22 18 17 18 20 21 28
64 60 66 72 74 72 67 63 63 68 71 77 78 82 80 84 85 87 83 77 74 70 59 53 50 44 35 33 31 28 27 26 28 28 27 24 19 18 18 19 20 26 30
61 69 71 71 68 66 64 62 63 64 65 67 70 73 76 80 78 76 72 72 64 53 47 39 39 37 37 36 36 34 34 32 30 26 23 19 17 16 19 20 21 22 28
65 67 63 60 60 60 59 60 62 62 63 64 66 67 68 68 66 60 50 42 34 30 33 37 40 39 39 38 35 37 36 32 28 21 21 19 17 18 17 19 21 24 34
60 59 60 62 62 62 57 52 50 46 40 35 33 31 31 32 33 32 30 27 30 36 39 42 42 42 42 41 40 36 36 33 31 24 20 20 21 19 20 25 28 30 26
62 62 61 56 53 48 43 40 38 37 35 32 32 29 28 29 29 29 29 32 40 46 50 46 44 45 44 43 39 37 34 34 33 32 32 39 38 32 38 36 37 29 20
61 58 54 46 42 42 42 44 42 43 44 44 46 43 37 35 40 40 38 36 40 45 50 53 52 48 45 45 44 45 48 51 47 42 32 33 36 30 29 39 32 23 24
57 52 49 48 49 50 50 49 48 51 52 51 50 43 41 38 48 51 50 48 48 48 49 50 49 47 49 53 48 42 37 33 35 39 36 40 49 40 35 26 26 24 23
52 54 58 57 53 56 55 57 62 62 62 59 56 59 56 53 47 44 46 47 46 49 51 47 47 40 39 39 36 37 41 45 39 39 37 38 37 34 30 29 30 30 26
58 59 58 58 61 62 66 66 68 68 68 69 68 65 67 61 59 57 57 54 52 54 52 51 52 49 49 50 47 39 34 33 33 35 34 32 30 30 31 31 32 32 31
62 64 64 66 69 71 70 70 76 73 74 75 76 73 75 71 67 70 69 67 59 57 53 55 56 54 48 49 46 42 43 35 32 34 33 30 26 22 21 25 29 31 31
68 69 72 71 73 73 74 75 76 73 78 83 74 82 85 70 71 68 72 68 67 66 62 65 71 68 62 56 51 55 55 53 51 51 45 42 40 36 28 24 25 30 34
77 75 74 75 73 75 78 79 81 81 83 79 78 73 72 68 65 63 58 56 55 54 49 52 66 79 65 73 74 62 62 64 63 72 70 60 53 44 39 34 32 30 30